GW2804 Weather Reports


time (UTC)temp
C
wind
direction
speed
KPH
gust
KPH
rain 1hr
cm
rain 24hr
cm
rain mn
cm
humidity
%
barometer
mb
20260906154601 22 95 8.0 19.3 0.00 0.00 0.00 88 1019.4
20260906153100 22 97 8.0 17.7 0.00 0.00 0.00 88 1019.3
20260906151604 22 97 6.4 14.5 0.00 0.00 0.00 88 1019.4
20260906150101 22 98 8.0 19.3 0.00 0.00 0.00 88 1019.2
20260906144603 22 93 8.0 17.7 0.00 0.00 0.00 88 1018.9
20260906143113 22 109 9.7 19.3 0.00 0.00 0.00 88 1018.9
20260906141603 22 90 4.8 12.9 0.00 0.00 0.00 89 1018.9
20260906140105 22 60 9.7 17.7 0.00 0.00 0.00 90 1018.7
20260906134556 22 90 9.7 17.7 0.00 0.00 0.00 90 1018.5
20260906133106 22 94 9.7 17.7 0.00 0.00 0.00 90 1018.4
20260906131603 21 68 6.4 16.1 0.00 0.00 0.00 92 1018.3
20260906124556 21 48 4.8 12.9 0.00 0.00 0.00 94 1018.1
20260906123104 21 122 6.4 14.5 0.00 0.00 0.00 94 1017.9
20260906121601 21 92 4.8 12.9 0.00 0.00 0.00 94 1017.9
20260906120113 21 70 4.8 12.9 0.00 0.00 0.00 93 1017.9
20260906114558 21 67 3.2 11.3 0.00 0.00 0.00 93 1017.7
20260906113103 21 77 4.8 12.9 0.00 0.00 0.00 93 1017.5
20260906111612 21 96 3.2 9.7 0.00 0.00 0.00 93 1017.4
20260906110059 21 74 4.8 12.9 0.00 0.00 0.00 93 1017.4
20260906104601 21 73 4.8 12.9 0.00 0.00 0.00 93 1017.3
20260906103101 21 71 6.4 11.3 0.00 0.00 0.00 93 1017.7
20260906101558 22 61 3.2 8.0 0.00 0.00 0.00 93 1017.3
20260906100058 22 92 3.2 8.0 0.00 0.00 0.00 93 1016.8
20260906094604 21 16 3.2 8.0 0.00 0.00 0.00 93 1017.1
20260906093105 21 13 1.6 6.4 0.00 0.00 0.00 93 1016.7
20260906091611 21 94 1.6 8.0 0.00 0.00 0.00 93 1016.4
20260906090100 21 38 3.2 12.9 0.00 0.00 0.00 92 1016.3
20260906084601 21 73 3.2 6.4 0.00 0.00 0.00 92 1016.3
20260906083102 22 72 4.8 11.3 0.00 0.00 0.00 92 1016.2
20260906081600 22 90 4.8 12.9 0.00 0.00 0.00 92 1016.1
20260906080110 22 87 4.8 11.3 0.00 0.00 0.00 92 1016.2
20260906074559 22 84 3.2 11.3 0.00 0.00 0.00 92 1016.1
20260906073101 22 84 3.2 9.7 0.00 0.00 0.00 92 1016.3
20260906071603 22 82 3.2 14.5 0.00 0.00 0.00 92 1016.4
20260906070100 22 67 3.2 8.0 0.00 0.00 0.00 92 1016.3
20260906064602 23 76 3.2 11.3 0.00 0.00 0.00 91 1016.6
20260906063102 23 96 4.8 14.5 0.00 0.00 0.00 91 1016.5
20260906061603 23 65 6.4 14.5 0.00 0.00 0.00 91 1016.6
20260906054607 23 19 4.8 11.3 0.00 0.00 0.00 91 1016.7
20260906053101 23 77 4.8 12.9 0.00 0.00 0.00 91 1016.5
20260906051608 23 5 4.8 11.3 0.00 0.00 0.00 91 1016.5
20260906044555 23 42 4.8 11.3 0.00 0.00 0.00 91 1016.3
20260906043100 23 80 6.4 16.1 0.00 0.00 0.00 91 1016.1
20260906041610 24 36 3.2 11.3 0.00 0.00 0.00 90 1016.0
20260906040108 24 360 3.2 8.0 0.00 0.00 0.00 90 1016.0
20260906034606 25 11 4.8 11.3 0.00 0.00 0.00 89 1015.7
20260906033107 25 71 4.8 14.5 0.00 0.00 0.00 88 1015.3
20260906031559 25 31 6.4 12.9 0.00 0.00 0.00 87 1015.2
20260906030110 25 80 4.8 14.5 0.00 0.00 0.00 87 1015.1
20260906024627 26 85 6.4 14.5 0.00 0.00 0.00 86 1014.9
20260906023103 26 69 6.4 14.5 0.00 0.00 0.00 86 1015.1
20260906021611 26 15 6.4 16.1 0.00 0.00 0.00 86 1015.1
20260906014609 27 64 8.0 20.9 0.00 0.00 0.00 84 1014.4
20260906013103 28 66 3.2 12.9 0.00 0.00 0.00 82 1014.1
20260906011602 28 61 1.6 6.4 0.00 0.00 0.00 81 1013.8
20260906010120 28 61 1.6 6.4 0.00 0.00 0.00 80 1013.8
20260906004607 29 61 3.2 4.8 0.00 0.00 0.00 80 1013.8
20260906003111 30 61 1.6 4.8 0.00 0.00 0.00 77 1013.7
20260906001606 30 61 0.0 4.8 0.00 0.00 0.00 76 1013.9
20260906000109 30 61 1.6 6.4 0.00 0.00 0.00 75 1013.8
20260905234607 31 41 3.2 4.8 0.00 0.00 0.00 74 1013.8
20260905233106 31 63 3.2 12.9 0.00 0.00 0.00 73 1013.7
20260905231603 31 66 3.2 9.7 0.00 0.00 0.00 71 1013.6
20260905230111 32 48 6.4 14.5 0.00 0.00 0.00 69 1013.5
20260905224603 32 24 3.2 14.5 0.00 0.00 0.00 68 1013.6
20260905223103 32 57 8.0 19.3 0.00 0.00 0.00 68 1013.4
20260905221600 32 44 6.4 17.7 0.00 0.00 0.00 67 1013.3
20260905220109 33 345 8.0 17.7 0.00 0.00 0.00 66 1013.4
20260905214600 33 355 4.8 16.1 0.00 0.00 0.00 63 1013.3
20260905213105 33 50 8.0 16.1 0.00 0.00 0.00 62 1013.3
20260905211558 33 24 6.4 14.5 0.00 0.00 0.00 62 1013.7
20260905210108 33 47 4.8 12.9 0.00 0.00 0.00 61 1013.7
20260905204611 33 11 6.4 17.7 0.00 0.00 0.00 60 1013.8
20260905203102 33 14 8.0 16.1 0.00 0.00 0.00 62 1013.9
20260905201600 33 49 4.8 14.5 0.00 0.00 0.00 60 1014.1
20260905200107 33 360 4.8 16.1 0.00 0.00 0.00 62 1014.1
20260905194603 33 360 3.2 12.9 0.00 0.00 0.00 64 1014.3
20260905193109 33 355 4.8 14.5 0.00 0.00 0.00 64 1014.3
20260905191611 34 25 3.2 12.9 0.00 0.00 0.00 61 1014.4
20260905190100 33 42 6.4 16.1 0.00 0.00 0.00 58 1014.5
20260905184612 35 355 6.4 17.7 0.00 0.00 0.00 55 1014.6
20260905183105 35 42 3.2 14.5 0.00 0.00 0.00 53 1014.7
20260905181603 34 34 6.4 14.5 0.00 0.00 0.00 57 1014.7
20260905180108 33 328 4.8 16.1 0.00 0.00 0.00 54 1014.9
20260905174604 33 0 1.6 12.9 0.00 0.00 0.00 59 1014.7
20260905173101 34 360 1.6 6.4 0.00 0.00 0.00 57 1014.9
20260905171601 34 352 4.8 9.7 0.00 0.00 0.00 56 1015.0
20260905170114 34 0 4.8 11.3 0.00 0.00 0.00 57 1015.2
20260905164606 32 319 4.8 9.7 0.00 0.00 0.00 61 1015.2
20260905163100 32 341 6.4 16.1 0.00 0.00 0.00 61 1015.3
20260905161600 33 323 3.2 12.9 0.00 0.00 0.00 59 1015.3
20260905160056 33 290 6.4 12.9 0.00 0.00 0.00 55 1015.3